Location: ?????????
(54.7630°N, 39.4991°E)
Time: 07:42:29
(UTC+00:00)

Cosmos 292 Rocket - Pass Details

Date: 14 April 2026
Orbit: 661 x 682 km, 74.0° (Epoch: 12 May)

Event Time Altitude Azimuth Distance (km) Brightness Sun altitude
Rises 22:11:33 0° 332° (NNW) 3,058 7.8 -24.7°
Reaches altitude 10° 22:13:52 10° 331° (NNW) 2,138 6.9 -24.7°
Enters shadow 22:18:38 77° 254° (WSW) 706 3.6 -24.5°
